Burlington, IA

7:50 AM CDT on March 29, 2017 (GMT -0500)
Burlington Regional

Weather History for KBRL - June, 2013

Change the Weather History Date:

Wednesday, June 26, 2013

  Actual Average Record
Temperature  
Mean Temperature 77 °F 76 °F  
Max Temperature 86 °F 86 °F 103 °F (1934)
Min Temperature 67 °F 66 °F 50 °F (1926)
Degree Days  
Heating Degree Days 0 0  
Month to date heating degree days 15 9  
Since 1 June heating degree days 15 9  
Since 1 July heating degree days 5928 5596  
Cooling Degree Days 12 11  
Month to date cooling degree days 169 214  
Year to date cooling degree days 268 317  
Since 1 June cooling degree days 169 214  
Growing Degree Days 25 (Base 50)    
Moisture  
Dew Point 72 °F    
Average Humidity 84    
Maximum Humidity 94    
Minimum Humidity 74    
Precipitation  
Precipitation 0.71 in 0.15 in 1.54 in (2011)
Month to date precipitation 2.14 3.92  
Year to date precipitation 25.34 18.18  
Sea Level Pressure  
Sea Level Pressure 29.76 in    
Wind  
Wind Speed 6 mph (WSW)    
Max Wind Speed 29 mph    
Max Gust Speed 36 mph    
Visibility 9 miles    
Events Rain , Thunderstorm    
T = Trace of Precipitation, MM = Missing Value Source: NWS Daily Summary

Daily Weather History Graph

Daily Weather History Graph

Search for Another Location

Airport or City:

Trip Planner

Search our weather history database for the weather conditions in past years. The results will help you decide how hot, cold, wet, or windy it might be!

Date:

Astronomy

Jun. 26, 2013 Rise Set
Actual Time 5:34 AM CDT 8:40 PM CDT
Civil Twilight 5:01 AM CDT 9:13 PM CDT
Nautical Twilight 4:18 AM CDT 9:56 PM CDT
Astronomical Twilight 3:28 AM CDT 10:46 PM CDT
Moon 11:01 PM CDT (6/26) 9:28 AM CDT (6/26)
Length of Visible Light 16h 12m
Length of Day
15h 05m
Waning Gibbous, 85% of the Moon is Illuminated
Jun 26
Waning Gibbous
Jun 29
Last Quarter
Jul 8
New
Jul 15
First Quarter
Jul 22
Full

Hourly Weather History & Observations

Time (CDT) Temp. Heat Index Dew Point Humidity Pressure Visibility Wind Dir Wind Speed Gust Speed Precip Events Conditions
12:53 AM 75.0 °F - 71.1 °F 87% 29.76 in 10.0 mi SSE 8.1 mph - N/A   Clear
1:53 AM 75.9 °F - 72.0 °F 87% 29.74 in 10.0 mi South 9.2 mph - N/A   Clear
2:53 AM 75.9 °F - 73.0 °F 91% 29.73 in 10.0 mi South 10.4 mph - N/A   Clear
3:53 AM 75.9 °F - 72.0 °F 87% 29.71 in 10.0 mi South 10.4 mph - N/A   Clear
4:53 AM 75.9 °F - 72.0 °F 87% 29.71 in 10.0 mi South 6.9 mph - N/A   Partly Cloudy
5:53 AM 75.0 °F - 71.1 °F 87% 29.76 in 10.0 mi WNW 8.1 mph - N/A Thunderstorm Overcast
6:09 AM 71.6 °F - 66.2 °F 83% 29.81 in 10.0 mi North 20.7 mph 35.7 mph N/A Thunderstorm Thunderstorm
6:28 AM 68.0 °F - 66.2 °F 94% 29.83 in 1.8 mi NNW 9.2 mph 27.6 mph 0.22 in Rain , Thunderstorm Heavy Thunderstorms and Rain
6:42 AM 66.2 °F - 66.2 °F 100% 29.82 in 1.0 mi NE 4.6 mph - 0.54 in Rain , Thunderstorm Heavy Thunderstorms and Rain
6:49 AM 66.2 °F - 66.2 °F 100% 29.82 in 2.0 mi North 3.5 mph - 0.59 in Rain , Thunderstorm Heavy Thunderstorms and Rain
6:53 AM 66.9 °F - 66.9 °F 100% 29.79 in 2.5 mi Calm Calm - 0.63 in Rain , Thunderstorm Heavy Thunderstorms and Rain
7:10 AM 68.0 °F - 66.2 °F 94% 29.79 in 7.0 mi NE 4.6 mph - 0.08 in Rain , Thunderstorm Light Thunderstorms and Rain
7:27 AM 69.8 °F - 68.0 °F 94% 29.76 in 10.0 mi SE 3.5 mph - 0.08 in   Mostly Cloudy
7:53 AM 70.0 °F - 68.0 °F 93% 29.76 in 10.0 mi SW 9.2 mph - 0.08 in   Scattered Clouds
8:12 AM 69.8 °F - 69.8 °F 100% 29.77 in 10.0 mi WSW 3.5 mph - N/A   Scattered Clouds
8:53 AM 73.0 °F - 70.0 °F 90% 29.75 in 10.0 mi SSW 4.6 mph - N/A   Mostly Cloudy
9:53 AM 75.9 °F - 71.1 °F 85% 29.75 in 10.0 mi SSW 5.8 mph - N/A   Mostly Cloudy
10:53 AM 78.1 °F - 71.1 °F 79% 29.76 in 10.0 mi South 8.1 mph - N/A   Overcast
11:53 AM 80.1 °F 83.8 °F 72.0 °F 76% 29.76 in 10.0 mi South 10.4 mph - N/A   Overcast
12:53 PM 82.0 °F 87.4 °F 73.0 °F 74% 29.75 in 10.0 mi South 11.5 mph - N/A   Clear
1:53 PM 82.9 °F 88.8 °F 73.0 °F 72% 29.74 in 10.0 mi WSW 8.1 mph - N/A   Mostly Cloudy
2:53 PM 82.9 °F 89.4 °F 73.9 °F 74% 29.74 in 10.0 mi WSW 5.8 mph - N/A   Partly Cloudy
3:41 PM 84.2 °F 92.3 °F 75.2 °F 74% 29.75 in 10.0 mi NW 5.8 mph - N/A   Mostly Cloudy
3:53 PM 84.9 °F 93.3 °F 75.0 °F 72% 29.74 in 10.0 mi WNW 6.9 mph - N/A   Mostly Cloudy
4:03 PM 84.2 °F 92.3 °F 75.2 °F 74% 29.76 in 10.0 mi West 4.6 mph - N/A   Mostly Cloudy
4:53 PM 84.9 °F 94.1 °F 75.9 °F 74% 29.72 in 9.0 mi Variable 3.5 mph - N/A   Partly Cloudy
5:53 PM 84.0 °F 92.6 °F 75.9 °F 76% 29.74 in 10.0 mi NNW 4.6 mph - N/A   Mostly Cloudy
6:04 PM 84.2 °F 92.3 °F 75.2 °F 74% 29.76 in 10.0 mi NW 5.8 mph - N/A   Scattered Clouds
6:53 PM 84.9 °F 94.1 °F 75.9 °F 74% 29.74 in 10.0 mi WNW 5.8 mph - N/A   Clear
7:53 PM 84.0 °F 93.7 °F 77.0 °F 79% 29.73 in 8.0 mi Calm Calm - N/A   Clear
8:53 PM 81.0 °F 87.9 °F 77.0 °F 88% 29.74 in 8.0 mi Calm Calm - N/A   Clear
9:53 PM 79.0 °F - 75.9 °F 90% 29.77 in 10.0 mi NNW 3.5 mph - N/A   Clear
10:53 PM 78.1 °F - 75.0 °F 90% 29.78 in 10.0 mi WNW 3.5 mph - N/A   Clear
11:53 PM 77.0 °F - 73.9 °F 90% 29.79 in 10.0 mi WNW 3.5 mph - N/A   Clear